{"data":{"norad_id":87164,"intl_designator":"","name":"UNKNOWN","alt_names":[],"object_type":"UNKNOWN","status":"UNKNOWN","operator":null,"country":null,"launch_date":null,"launch_site_code":null,"launch_vehicle":null,"mission":null,"orbit_class":"UNKNOWN","rcs_meters":null,"size_class":null,"mass_kg":null,"dimensions":null,"purposes":[],"wikipedia_slug":null,"has_3d_model":false,"image_url":null,"decayed_at":null,"tle_current":{"epoch":"2026-09-18T05:21:40.445856Z","epoch_age_seconds":211165,"freshness":"STALE","line1":"1 87164U          26261.22338479  .00002768  00000+0  53482-3 0  9998","line2":"2 87164  65.2015 234.2380 0121299 296.7328  62.1400 14.60671145676568","mean_motion":14.60671145,"eccentricity":0.0121299,"inclination_deg":65.2015,"raan_deg":234.238,"arg_perigee_deg":296.7328,"mean_anomaly_deg":62.14,"bstar":0.00053482,"rev_number":67656,"period_min":98.584818693054,"perigee_km":605.259733287,"apogee_km":776.75577114683,"semimajor_km":7069.1447522169,"source":"CELESTRAK","updated_at":"2026-09-20T09:00:32.451061Z"}}}